Погода в Нюрбурге

Германия     50°20′33″N   6°57′08″E
темп.,
°C
ветер,
м/с
пор.,
м/с
влажн.,
%
обл.,
%
осадки,
мм/ч
давл.,
гПа
погр.,
м
8 мая, сб
сб823:00+3зсз117392 0.0 102112
02:00+1зюз1177100 0.0 102011
05:00+1ююз228185 0.0 101921
08:00+5ю2470100 0.0 1019155
11:00+10ю475299 0.0 10171048
14:00+12ююз61056100 0.1 10141473
17:00+9ююз31188100 0.3 1013602
20:00+12ююз411865 0.3 1011776
9 мая, вс
вс923:00+9ю239783 0.0 101251
02:00+8ю2398100 0.0 101164
05:00+8ююв229697 0.0 100936
08:00+11ююв2689100 0.0 1008183
11:00+18ю61257100 0.0 1007931
14:00+21ююз71153100 0.0 10061382
17:00+22ююз71255100 0.0 10051384
20:00+18ююз61461100 0.0 10041213
10 мая, пн
пн1023:00+15ююз3865100 0.0 1005255
02:00+13ююз148478 0.1 100482
05:00+11ююв2593100 0.1 1004132
08:00+12ю41399100 4.5 1005967
11:00+12юз5119388 0.9 10071017
14:00+14юз5976100 1.4 10091156
17:00+13юз3568100 0.1 1009941
20:00+11ю1183100 0.1 100929
11 мая, вт
вт1123:00+9ю1198100 1.6 101031
02:00+10ю2499100 5.8 1011215
05:00+9юз2699100 1.9 1010369
08:00+10юз1398100 2.5 1010216
11:00+10ссз0197100 0.2 1009106
14:00+12юв2385100 0.4 1008680
17:00+12ю1190100 0.6 1008274
20:00+11з119497 1.6 100931
12 мая, ср
ср1223:00+10сз2598100 0.8 1010249
02:00+9зсз389899 0.9 1011447
05:00+8зсз3997100 0.1 1011521
08:00+8зсз3896100 0.3 1012539
11:00+12зсз3567100 0.1 10121281
14:00+12зсз247597 0.6 1012651
17:00+11зсз1281100 0.8 1012191
20:00+10с118442 1.2 101323